Terminal Aerodrome Forecast
Issued by NWS

Home | Current Version | Previous Version | Text Only | Print | Product List | Glossary On
Versions: 1 2 3 4 5 6 7 8 9 10 11 12 13 14 15 16 17 18 19 20 21 22 23 24 25 26 27 28 29 30 31 32 33 34 35 36 37 38 39 40 41 42 43 44 45 46 47 48
000
FTUS46 KPQR 272324
TAFONP
TAF
KONP 272324Z 2800/2824 35014G20KT P6SM SKC
     FM280800 36008KT P6SM BKN015
     FM281700 35010KT P6SM SKC
     FM281900 35018G24KT P6SM SKC=

USA.gov is the U.S. government's official web portal to all federal, state and local government web resources and services.